KG7MRB Weather Reports


time (UTC)temp
F
wind
direction
speed
knots
gust
knots
rain 1hr
in
rain 24hr
in
rain mn
in
humidity
%
barometer
mb
20260505124737 47 13 0.0 0.0 0.00 0.00 0.00 97 1032.0
20260505124234 47 13 0.0 0.0 0.00 0.00 0.00 96 1031.7
20260505123729 48 13 0.0 1.7 0.00 0.00 0.00 95 1031.7
20260505123226 49 6 0.0 0.9 0.00 0.00 0.00 92 1031.5
20260505122722 50 168 0.0 1.7 0.00 0.00 0.00 92 1031.6
20260505122219 48 237 1.7 2.6 0.00 0.00 0.00 95 1031.4
20260505121711 48 184 0.0 0.0 0.00 0.00 0.00 96 1031.4
20260505121207 48 32 0.0 0.0 0.00 0.00 0.00 97 1031.4
20260505120704 47 31 0.0 0.0 0.00 0.00 0.00 96 1031.5
20260505120159 48 31 0.0 0.0 0.00 0.00 0.00 96 1031.3
20260505115653 48 31 0.0 0.0 0.00 0.00 0.00 96 1031.5
20260505115151 48 31 0.0 0.0 0.00 0.00 0.00 96 1031.2
20260505114648 48 31 0.0 0.0 0.00 0.00 0.00 96 1031.2
20260505114144 48 31 0.0 0.0 0.00 0.00 0.00 96 1031.1
20260505113641 48 31 0.0 0.0 0.00 0.00 0.00 95 1031.1
20260505113138 48 31 0.0 0.0 0.00 0.00 0.00 95 1031.1
20260505112633 48 31 0.0 0.0 0.00 0.00 0.00 95 1031.0
20260505112132 48 31 0.0 0.0 0.00 0.00 0.00 94 1030.9
20260505111631 49 31 0.0 0.0 0.00 0.00 0.00 94 1031.0
20260505111128 49 31 0.0 0.0 0.00 0.00 0.00 94 1031.0
20260505110624 49 31 0.0 0.0 0.00 0.00 0.00 93 1030.9
20260505110121 50 31 0.0 0.0 0.00 0.00 0.00 93 1030.8
20260505102057 51 31 0.0 0.0 0.00 0.00 0.00 90 1030.8
20260505101555 52 31 0.0 0.0 0.00 0.00 0.00 89 1030.7
20260505101051 52 31 0.0 0.0 0.00 0.00 0.00 88 1030.6
20260505100548 52 31 0.0 0.0 0.00 0.00 0.00 87 1030.5
20260505100045 53 30 0.0 0.0 0.00 0.00 0.00 87 1030.6
20260505095541 53 30 0.0 0.0 0.00 0.00 0.00 86 1030.5
20260505095038 53 31 0.0 0.0 0.00 0.00 0.00 85 1030.6
20260505094534 54 293 0.9 1.7 0.00 0.00 0.00 83 1030.5
20260505094030 54 284 0.9 2.6 0.00 0.00 0.00 82 1030.5
20260505093527 55 123 0.0 0.0 0.00 0.00 0.00 82 1030.2
20260505093024 56 122 0.0 0.9 0.00 0.00 0.00 80 1030.2
20260505092522 57 92 0.9 0.9 0.00 0.00 0.00 78 1030.4
20260505092020 57 137 3.5 3.5 0.00 0.00 0.00 76 1030.2
20260505091516 58 268 0.0 5.2 0.00 0.00 0.00 76 1030.0
20260505091015 58 98 2.6 2.6 0.00 0.00 0.00 75 1030.0
20260505090512 57 208 3.5 5.2 0.00 0.00 0.00 74 1030.1
20260505090010 58 183 0.9 3.5 0.00 0.00 0.00 76 1029.9
20260505085508 59 134 2.6 2.6 0.00 0.00 0.00 73 1029.8
20260505085006 60 157 1.7 6.1 0.00 0.00 0.00 70 1029.9
20260505084504 60 229 4.3 6.1 0.00 0.00 0.00 68 1029.7
20260505084001 61 170 1.7 7.0 0.00 0.00 0.00 67 1029.7
20260505083458 60 141 3.5 11.3 0.00 0.00 0.00 68 1029.7
20260505082954 60 166 3.5 7.8 0.00 0.00 0.00 71 1029.8
20260505082450 61 173 3.5 9.6 0.00 0.00 0.00 69 1029.7
20260505081947 60 116 5.2 13.9 0.00 0.00 0.00 69 1029.7
20260505081444 60 141 10.4 13.0 0.00 0.00 0.00 70 1029.7
20260505080941 61 177 6.1 11.3 0.00 0.00 0.00 70 1029.5
20260505080437 61 144 7.0 12.2 0.00 0.00 0.00 69 1029.6
20260505075932 62 134 6.1 13.0 0.00 0.00 0.00 68 1029.6
20260505075430 62 133 4.3 9.6 0.00 0.00 0.00 67 1029.6
20260505074927 63 164 4.3 7.8 0.00 0.00 0.00 65 1029.4
20260505074424 63 191 6.1 8.7 0.00 0.00 0.00 65 1029.2
20260505073921 63 167 5.2 13.0 0.00 0.00 0.00 64 1029.5
20260505073419 62 182 4.3 8.7 0.00 0.00 0.00 66 1029.3
20260505072916 62 156 5.2 9.6 0.00 0.00 0.00 67 1029.2
20260505072412 62 143 5.2 8.7 0.00 0.00 0.00 67 1029.2
20260505071908 61 168 7.0 11.3 0.00 0.00 0.00 69 1029.0
20260505071404 61 148 3.5 7.8 0.00 0.00 0.00 71 1029.1
20260505070903 61 187 2.6 6.1 0.00 0.00 0.00 71 1028.9
20260505070358 61 166 4.3 6.1 0.00 0.00 0.00 72 1029.1
20260505065854 61 165 3.5 9.6 0.00 0.00 0.00 71 1028.9
20260505065351 61 168 5.2 7.8 0.00 0.00 0.00 71 1028.9
20260505064848 61 192 5.2 7.0 0.00 0.00 0.00 71 1028.8
20260505064345 61 180 6.1 7.8 0.00 0.00 0.00 72 1028.7
20260505063844 62 170 7.0 7.8 0.00 0.00 0.00 71 1028.8
20260505063339 63 166 7.0 7.8 0.00 0.00 0.00 68 1028.9
20260505062836 64 103 4.3 7.8 0.00 0.00 0.00 66 1028.8
20260505062333 64 142 3.5 7.0 0.00 0.00 0.00 67 1028.6
20260505061830 64 132 2.6 7.0 0.00 0.00 0.00 65 1028.6
20260505061328 64 187 2.6 6.1 0.00 0.00 0.00 64 1028.6
20260505060825 64 200 1.7 5.2 0.00 0.00 0.00 64 1028.6
20260505060322 65 155 2.6 3.5 0.00 0.00 0.00 64 1028.3
20260505055818 66 141 1.7 2.6 0.00 0.00 0.00 62 1028.6
20260505055314 65 174 5.2 7.0 0.00 0.00 0.00 61 1028.5
20260505054812 64 171 1.7 6.1 0.00 0.00 0.00 65 1028.4
20260505054309 64 174 2.6 3.5 0.00 0.00 0.00 70 1028.4
20260505053807 64 175 1.7 2.6 0.00 0.00 0.00 69 1028.5
20260505053304 63 129 0.9 3.5 0.00 0.00 0.00 67 1028.5
20260505052801 65 126 0.9 1.7 0.00 0.00 0.00 68 1028.4
20260505052257 65 198 1.7 8.7 0.00 0.00 0.00 63 1028.2
20260505051754 64 126 3.5 5.2 0.00 0.00 0.00 67 1028.3
20260505051252 64 117 0.0 2.6 0.00 0.00 0.00 69 1028.3
20260505050750 65 167 3.5 6.1 0.00 0.00 0.00 65 1028.3
20260505050249 65 172 0.9 3.5 0.00 0.00 0.00 66 1028.2
20260505041712 63 10 0.9 1.7 0.00 0.00 0.00 77 1027.5
20260505041210 63 286 0.0 2.6 0.00 0.00 0.00 75 1027.7
20260505040707 64 244 1.7 3.5 0.00 0.00 0.00 73 1027.5
20260505040204 64 148 0.9 1.7 0.00 0.00 0.00 73 1027.6
20260505035701 65 148 0.9 2.6 0.00 0.00 0.00 71 1027.5
20260505035157 65 177 1.7 3.5 0.00 0.00 0.00 68 1027.4
20260505034653 64 134 1.7 5.2 0.00 0.00 0.00 67 1027.2
20260505034151 64 126 0.0 0.9 0.00 0.00 0.00 73 1027.4
20260505033647 65 112 0.0 0.9 0.00 0.00 0.00 73 1027.3
20260505033145 65 339 0.0 0.0 0.00 0.00 0.00 72 1027.4
20260505032643 66 339 0.0 0.0 0.00 0.00 0.00 71 1027.2
20260505032139 66 339 0.0 0.0 0.00 0.00 0.00 70 1027.1
20260505031636 67 339 0.0 0.0 0.00 0.00 0.00 69 1027.1
20260505031132 67 8 0.0 0.9 0.00 0.00 0.00 69 1027.0
20260505030630 67 8 0.0 0.0 0.00 0.00 0.00 67 1027.2
20260505030125 68 7 0.0 0.0 0.00 0.00 0.00 68 1027.1
20260505025621 69 8 0.0 0.0 0.00 0.00 0.00 66 1026.9
20260505025120 69 26 0.0 0.0 0.00 0.00 0.00 65 1027.0
20260505024617 70 26 0.0 0.0 0.00 0.00 0.00 62 1027.0
20260505024114 71 26 0.0 0.0 0.00 0.00 0.00 62 1026.7
20260505023612 72 26 0.0 0.0 0.00 0.00 0.00 59 1026.8
20260505023109 73 27 0.9 0.9 0.00 0.00 0.00 56 1026.6
20260505022606 75 352 0.0 3.5 0.00 0.00 0.00 48 1026.8
20260505022103 75 29 0.0 0.9 0.00 0.00 0.00 48 1026.8
20260505021600 76 49 1.7 2.6 0.00 0.00 0.00 46 1026.8
20260505021057 76 4 4.3 5.2 0.00 0.00 0.00 46 1026.8
20260505020556 76 12 2.6 2.6 0.00 0.00 0.00 46 1026.8
20260505020054 76 359 3.5 5.2 0.00 0.00 0.00 45 1026.7
20260505015551 77 28 3.5 5.2 0.00 0.00 0.00 45 1026.8
20260505015048 77 13 2.6 2.6 0.00 0.00 0.00 45 1026.9
20260505014544 77 349 4.3 5.2 0.00 0.00 0.00 44 1026.8
20260505014041 77 31 3.5 7.0 0.00 0.00 0.00 44 1026.8
20260505013538 77 359 3.5 6.1 0.00 0.00 0.00 44 1026.7
20260505013036 77 6 3.5 7.0 0.00 0.00 0.00 44 1026.7
20260505012534 77 1 6.1 7.0 0.00 0.00 0.00 44 1027.1
20260505012031 78 9 3.5 7.0 0.00 0.00 0.00 44 1026.8
20260505011526 78 4 2.6 5.2 0.00 0.00 0.00 44 1026.9
20260505011024 78 12 2.6 5.2 0.00 0.00 0.00 45 1027.1
20260505010519 78 359 4.3 7.0 0.00 0.00 0.00 45 1027.1
20260505010016 78 19 2.6 7.0 0.00 0.00 0.00 44 1027.0
20260505005512 78 6 4.3 6.1 0.00 0.00 0.00 44 1027.1
20260505005010 78 14 1.7 7.0 0.00 0.00 0.00 44 1027.0
20260505004506 79 356 6.1 7.0 0.00 0.00 0.00 44 1027.0
20260505004003 79 8 3.5 6.1 0.00 0.00 0.00 45 1026.9
20260505003500 78 337 3.5 7.8 0.00 0.00 0.00 46 1026.9
20260505002957 79 22 5.2 7.8 0.00 0.00 0.00 45 1027.1
20260505002452 79 356 3.5 7.8 0.00 0.00 0.00 46 1027.1
20260505001951 79 5 4.3 7.8 0.00 0.00 0.00 45 1027.0
20260505001448 79 5 5.2 7.0 0.00 0.00 0.00 45 1027.1
20260505000945 79 12 8.7 11.3 0.00 0.00 0.00 44 1027.1
20260505000443 79 350 5.2 8.7 0.00 0.00 0.00 45 1027.0
20260504235940 80 12 6.1 8.7 0.00 0.00 0.00 45 1027.0
20260504235437 80 16 5.2 8.7 0.00 0.00 0.00 44 1027.2
20260504234933 80 350 5.2 9.6 0.00 0.00 0.00 45 1027.1
20260504234431 81 353 2.6 6.1 0.00 0.00 0.00 45 1027.0
20260504233927 81 17 3.5 8.7 0.00 0.00 0.00 45 1027.1
20260504233423 82 10 6.1 7.8 0.00 0.00 0.00 44 1027.2
20260504232920 82 340 6.1 7.0 0.00 0.00 0.00 43 1027.2
20260504232417 82 16 0.9 6.1 0.00 0.00 0.00 44 1027.1
20260504231914 82 355 3.5 8.7 0.00 0.00 0.00 42 1027.0
20260504231410 82 352 4.3 6.1 0.00 0.00 0.00 41 1027.0
20260504230907 81 342 4.3 7.0 0.00 0.00 0.00 44 1027.1
20260504230404 82 19 5.2 6.1 0.00 0.00 0.00 42 1027.1
20260504225903 82 22 5.2 9.6 0.00 0.00 0.00 43 1027.2
20260504225359 82 14 4.3 7.0 0.00 0.00 0.00 42 1027.4
20260504224857 83 31 2.6 3.5 0.00 0.00 0.00 41 1027.3
20260504224353 82 332 1.7 6.1 0.00 0.00 0.00 41 1027.4
20260504223850 83 16 2.6 5.2 0.00 0.00 0.00 39 1027.6
20260504223345 82 18 1.7 6.1 0.00 0.00 0.00 40 1027.5
20260504222842 82 8 3.5 5.2 0.00 0.00 0.00 41 1027.4
20260504222339 82 54 2.6 5.2 0.00 0.00 0.00 39 1027.4
20260504221838 82 335 0.9 6.1 0.00 0.00 0.00 41 1027.5
20260504221334 82 13 3.5 6.1 0.00 0.00 0.00 40 1027.6
20260504220831 81 12 2.6 8.7 0.00 0.00 0.00 41 1027.7
20260504220328 83 11 5.2 8.7 0.00 0.00 0.00 38 1027.7
20260504215825 81 112 0.0 1.7 0.00 0.00 0.00 41 1027.9
20260504215321 81 348 2.6 3.5 0.00 0.00 0.00 40 1027.7
20260504214817 81 139 0.9 6.1 0.00 0.00 0.00 41 1027.8
20260504214315 81 341 5.2 7.8 0.00 0.00 0.00 41 1027.8
20260504213811 82 354 1.7 5.2 0.00 0.00 0.00 42 1028.0
20260504213307 80 16 2.6 5.2 0.00 0.00 0.00 41 1027.7
20260504212805 80 12 5.2 6.1 0.00 0.00 0.00 42 1027.9
20260504212300 80 29 1.7 1.7 0.00 0.00 0.00 39 1027.8
20260504211758 80 349 2.6 6.1 0.00 0.00 0.00 40 1027.7
20260504211248 81 344 2.6 3.5 0.00 0.00 0.00 39 1027.9
20260504210746 82 1 0.9 2.6 0.00 0.00 0.00 40 1027.7
20260504210243 81 93 0.9 3.5 0.00 0.00 0.00 37 1027.8
20260504205740 82 249 0.0 1.7 0.00 0.00 0.00 38 1027.7
20260504205238 81 38 0.9 1.7 0.00 0.00 0.00 38 1027.8
20260504204736 81 301 1.7 3.5 0.00 0.00 0.00 38 1027.8
20260504204234 82 68 0.9 3.5 0.00 0.00 0.00 35 1028.0
20260504203733 82 338 5.2 7.0 0.00 0.00 0.00 37 1027.9
20260504203230 82 17 1.7 3.5 0.00 0.00 0.00 36 1028.1
20260504202730 81 113 0.9 3.5 0.00 0.00 0.00 37 1028.0
20260504202227 82 123 2.6 3.5 0.00 0.00 0.00 38 1028.0
20260504201724 81 22 0.9 2.6 0.00 0.00 0.00 37 1027.8
20260504201221 81 1 3.5 7.0 0.00 0.00 0.00 36 1027.9
20260504200719 81 24 2.6 5.2 0.00 0.00 0.00 34 1028.0
20260504200215 80 11 0.0 6.1 0.00 0.00 0.00 39 1028.0
20260504195711 80 75 0.9 7.8 0.00 0.00 0.00 39 1028.2
20260504195207 81 90 0.9 3.5 0.00 0.00 0.00 36 1028.0
20260504194704 82 320 1.7 2.6 0.00 0.00 0.00 36 1028.0
20260504194201 80 67 1.7 5.2 0.00 0.00 0.00 35 1028.1
20260504193657 81 9 3.5 5.2 0.00 0.00 0.00 36 1028.1
20260504193155 81 8 1.7 5.2 0.00 0.00 0.00 35 1028.1
20260504192653 79 21 3.5 7.0 0.00 0.00 0.00 37 1028.2
20260504192150 80 347 0.0 1.7 0.00 0.00 0.00 37 1027.9
20260504191649 79 342 1.7 8.7 0.00 0.00 0.00 37 1027.9
20260504191144 80 7 0.9 7.0 0.00 0.00 0.00 36 1028.1
20260504190640 80 2 1.7 3.5 0.00 0.00 0.00 37 1028.1
20260504190138 80 81 0.9 3.5 0.00 0.00 0.00 37 1028.3
20260504185634 80 33 0.9 2.6 0.00 0.00 0.00 37 1028.1
20260504185131 79 0 3.5 7.8 0.00 0.00 0.00 39 1027.9
20260504184627 79 10 2.6 3.5 0.00 0.00 0.00 38 1028.3
20260504184121 79 285 0.0 3.5 0.00 0.00 0.00 38 1028.1
20260504183619 78 352 3.5 6.1 0.00 0.00 0.00 38 1028.2
20260504183117 78 358 1.7 5.2 0.00 0.00 0.00 41 1028.1
20260504182614 78 357 3.5 6.1 0.00 0.00 0.00 38 1028.3
20260504182111 79 279 0.9 1.7 0.00 0.00 0.00 38 1028.1
20260504181609 78 59 1.7 1.7 0.00 0.00 0.00 38 1028.1
20260504181106 78 291 0.0 7.0 0.00 0.00 0.00 41 1028.4
20260504180605 78 5 2.6 7.8 0.00 0.00 0.00 38 1028.0
20260504180104 77 117 0.0 1.7 0.00 0.00 0.00 40 1028.1
20260504175600 77 220 0.9 7.8 0.00 0.00 0.00 37 1028.1
20260504175057 77 273 3.5 9.6 0.00 0.00 0.00 37 1028.2
20260504174555 77 335 1.7 6.1 0.00 0.00 0.00 35 1028.2
20260504174051 77 302 0.9 1.7 0.00 0.00 0.00 39 1028.0
20260504173548 77 80 0.9 2.6 0.00 0.00 0.00 41 1028.1
20260504173046 76 60 0.9 2.6 0.00 0.00 0.00 43 1028.2
20260504172542 75 71 0.9 1.7 0.00 0.00 0.00 45 1028.1
20260504172039 74 126 2.6 7.0 0.00 0.00 0.00 45 1028.3
20260504171536 75 112 1.7 1.7 0.00 0.00 0.00 49 1028.3
20260504171033 75 96 0.0 0.9 0.00 0.00 0.00 49 1028.6
20260504170528 74 69 0.0 0.0 0.00 0.00 0.00 50 1028.7
20260504150912 47 3 0.0 0.0 0.00 0.00 0.00 96 1029.3
20260504150409 46 4 0.0 0.0 0.00 0.00 0.00 97 1029.1
20260504140835 44 2 0.0 0.0 0.00 0.00 0.00 99 1029.0
20260504140331 44 2 0.0 0.0 0.00 0.00 0.00 99 1028.8
20260504130800 44 4 0.0 0.0 0.00 0.00 0.00 99 1028.5
20260504130256 44 4 0.0 0.0 0.00 0.00 0.00 99 1028.8